ABS-2

Last updated on Tue Jul 08 2025 00:02:46 GMT+0000 (Coordinated Universal Time)

1 39508U 14006A 25188.50706876 -.00000070 00000+0 00000+0 0 9995 2 39508 0.0375 81.8260 0003890 26.6418 74.7144 1.00271980 41824
UTC large
Height (km)
Speed (km/s)
/
Latitude / Longitude
Inclination (degrees)
Orbital Period (minutes)
Azimuth
Elevation
Range (km)
Doppler Factor

Next 0 passes for location: London (51.5072 / 0.1276)

Sorry there are no passes over London.